This demonstration page uses our WeatherBlox Daily Observations layout. Learn more.

Left ArrowRight Arrow

Hourly Observations for May 22, 2020

Temp ( °F °C ) Dew Point ( °F °C ) Humidity (%) Winds ( mph kmh ) Pressure ( in mb ) Visibility ( mi km ) Precip ( " mm )
12:53 am 00:53 Clear 77 25 17 -8.3 10 10 WNW 14 22 29.62 1003 10 16 0.00 0.00
1:53 am 01:53 Clear 76 24.4 19 -7.2 12 12 S 9 15 29.65 1004 10 16 0.00 0.00
2:53 am 02:53 Clear 68 20 20 -6.7 16 16 SE 6 9 29.68 1005 10 16 0.00 0.00
3:53 am 03:53 Clear 68 20 21 -6.1 17 17 S 9 15 29.69 1006 10 16 0.00 0.00
4:53 am 04:53 Clear 67 19.4 22 -5.6 18 18 SE 8 13 29.70 1006 10 16 0.00 0.00
5:53 am 05:53 Clear 64 17.8 24 -4.4 22 22 S 8 13 29.70 1006 10 16 0.00 0.00
6:53 am 06:53 Sunny 59 15 29 -1.7 32 32 Calm 29.71 1006 10 16 0.00 0.00
7:53 am 07:53 Sunny 68 20 38 3.3 33 33 N 5 7 29.72 1006 10 16 0.00 0.00
8:53 am 08:53 Sunny 73 22.8 37 2.8 27 27 Calm 29.73 1007 10 16 0.00 0.00
9:53 am 09:53 Sunny 82 27.8 26 -3.3 13 13 undefined N/A 29.74 1007 10 16 0.00 0.00
10:53 am 10:53 Sunny 85 29.4 23 -5 10 10 undefined N/A 29.74 1007 10 16 0.00 0.00
11:53 am 11:53 Sunny 88 31.1 23 -5 9 9 undefined N/A 29.73 1007 10 16 0.00 0.00
12:53 pm 12:53 Sunny 91 32.8 17 -8.3 6 6 undefined N/A 29.72 1006 N/A 0.00 0.00
1:53 pm 13:53 Sunny 93 33.9 13 -10.6 5 5 W 8 13 29.70 1006 10 16 0.00 0.00
2:53 pm 14:53 Sunny 96 35.6 14 -10 5 5 WSW 13 20 29.69 1005 10 16 0.00 0.00
3:53 pm 15:53 Sunny 96 35.6 16 -8.9 5 5 W 9 15 29.67 1005 10 16 0.00 0.00
4:53 pm 16:53 Sunny 95 35 17 -8.3 6 6 SW 12 19 29.65 1004 10 16 0.00 0.00
5:53 pm 17:53 Sunny 96 35.6 19 -7.2 6 6 VRB 5 7 29.63 1003 10 16 0.00 0.00
6:53 pm 18:53 Sunny 95 35 18 -7.8 6 6 SE 5 7 29.61 1003 10 16 0.00 0.00
7:53 pm 19:53 Sunny 95 35 20 -6.7 6 6 Calm 29.60 1002 10 16 0.00 0.00
8:53 pm 20:53 Clear 88 31.1 26 -3.3 10 10 ESE 5 7 29.61 1003 10 16 0.00 0.00
9:53 pm 21:53 Clear 81 27.2 28 -2.2 14 14 ESE 3 6 29.62 1003 10 16 0.00 0.00
10:53 pm 22:53 Clear 82 27.8 31 -0.6 16 16 S 10 17 29.65 1004 10 16 0.00 0.00
11:53 pm 23:53 Clear 77 25 35 1.7 22 22 WSW 9 15 29.66 1005 10 16 0.00 0.00

Powered by AerisWeather